EN

Hourly Weather Derby

Today, 25 January, Monday

Time Temperature Precipitation Wind Pressure Humidity
00:00 -3°C° 0 mm 2 mps 743 mmHg 81%
01:00 -3°C° 0 mm 2 mps 743 mmHg 79%
02:00 -3°C° 0 mm 2 mps 744 mmHg 77%
03:00 -3°C° 0 mm 2 mps 744 mmHg 75%
04:00 -4°C° 0 mm 3 mps 744 mmHg 80%
05:00 -4°C° 0 mm 3 mps 745 mmHg 85%
06:00 -4°C° 0 mm 4 mps 745 mmHg 91%
07:00 -3°C° 0 mm 4 mps 745 mmHg 91%
08:00 -3°C° 0 mm 4 mps 746 mmHg 91%
09:00 -3°C° 0 mm 4 mps 746 mmHg 90%
10:00 -1°C° 0 mm 5 mps 746 mmHg 87%
11:00 -1°C° 0 mm 6 mps 747 mmHg 84%
12:00 +1°C° 0 mm 6 mps 747 mmHg 80%
13:00 +1°C° 0 mm 6 mps 747 mmHg 80%
14:00 +1°C° 0 mm 6 mps 748 mmHg 80%
15:00 +1°C° 0 mm 6 mps 748 mmHg 80%
16:00 0°C° 0 mm 5 mps 749 mmHg 82%
17:00 -1°C° 0 mm 5 mps 749 mmHg 83%
18:00 -1°C° 0 mm 5 mps 750 mmHg 85%
19:00 -2°C° 0 mm 5 mps 750 mmHg 86%
20:00 -2°C° 0 mm 4 mps 751 mmHg 87%
21:00 -2°C° 0 mm 4 mps 751 mmHg 87%
22:00 -2°C° 0 mm 4 mps 751 mmHg 88%
23:00 -3°C° 0 mm 4 mps 752 mmHg 88%

Tomorrow, 26 January, Tuesday

Time Temperature Precipitation Wind Pressure Humidity
00:00 -3°C° 0 mm 4 mps 752 mmHg 88%
01:00 -2°C° 0 mm 3 mps 752 mmHg 88%
02:00 -2°C° 0 mm 3 mps 752 mmHg 89%
03:00 -2°C° 0 mm 3 mps 752 mmHg 89%
04:00 -2°C° 0 mm 3 mps 752 mmHg 89%
05:00 -2°C° 0 mm 3 mps 753 mmHg 90%
06:00 -2°C° 0 mm 2 mps 753 mmHg 91%
07:00 -1°C° 0 mm 3 mps 753 mmHg 91%
08:00 -1°C° 0 mm 3 mps 753 mmHg 91%
09:00 0°C° 0 mm 3 mps 753 mmHg 90%
10:00 0°C° 0 mm 3 mps 753 mmHg 90%
11:00 +1°C° 0 mm 3 mps 753 mmHg 89%
12:00 +1°C° 0 mm 4 mps 753 mmHg 88%
13:00 +1°C° 0.1 mm 4 mps 752 mmHg 91%
14:00 +1°C° 0.1 mm 4 mps 752 mmHg 94%
15:00 0°C° 0.1 mm 4 mps 751 mmHg 96%
16:00 +1°C° 0.4 mm 4 mps 751 mmHg 97%
17:00 +1°C° 0.4 mm 4 mps 750 mmHg 97%
18:00 +1°C° 0.4 mm 4 mps 750 mmHg 98%
19:00 +1°C° 0.4 mm 4 mps 750 mmHg 98%
20:00 +2°C° 0.4 mm 3 mps 749 mmHg 98%
21:00 +2°C° 0.4 mm 3 mps 749 mmHg 99%
22:00 +2°C° 0 mm 3 mps 749 mmHg 98%
23:00 +3°C° 0 mm 2 mps 749 mmHg 98%

Day after tomorrow, 27 January, Wednesday

Time Temperature Precipitation Wind Pressure Humidity
00:00 +3°C° 0 mm 2 mps 749 mmHg 98%
01:00 +3°C° 0 mm 2 mps 749 mmHg 98%
02:00 +3°C° 0 mm 2 mps 749 mmHg 98%
03:00 +5°C° 0 mm 1 mps 749 mmHg 97%
04:00 +5°C° 0.2 mm 1 mps 749 mmHg 97%
05:00 +5°C° 0.2 mm 1 mps 750 mmHg 98%
06:00 +5°C° 0.2 mm 1 mps 750 mmHg 98%
07:00 +5°C° 0.1 mm 1 mps 750 mmHg 98%
08:00 +6°C° 0.1 mm 1 mps 750 mmHg 97%
09:00 +6°C° 0.1 mm 1 mps 750 mmHg 97%
10:00 +6°C° 0.1 mm 1 mps 750 mmHg 97%
11:00 +6°C° 0.1 mm 1 mps 750 mmHg 97%
12:00 +6°C° 0.1 mm 1 mps 751 mmHg 97%
13:00 +6°C° 0 mm 1 mps 750 mmHg 98%
14:00 +6°C° 0 mm 1 mps 750 mmHg 98%
15:00 +6°C° 0 mm 2 mps 749 mmHg 98%
16:00 +5°C° 0 mm 2 mps 749 mmHg 98%
17:00 +5°C° 0 mm 2 mps 748 mmHg 98%
18:00 +5°C° 0 mm 2 mps 748 mmHg 99%
19:00 +5°C° 0.5 mm 2 mps 747 mmHg 99%
20:00 +6°C° 0.5 mm 2 mps 747 mmHg 99%
21:00 +6°C° 0.5 mm 2 mps 746 mmHg 99%
22:00 +7°C° 1.1 mm 3 mps 745 mmHg 98%
23:00 +6°C° 1.1 mm 4 mps 744 mmHg 98%

28 January, Thursday

Time Temperature Precipitation Wind Pressure Humidity
00:00 +7°C° 1.1 mm 4 mps 743 mmHg 98%
01:00 +7°C° 0.6 mm 5 mps 742 mmHg 97%
02:00 +8°C° 0.6 mm 6 mps 742 mmHg 96%
03:00 +8°C° 0.6 mm 7 mps 741 mmHg 95%
04:00 +8°C° 0 mm 7 mps 741 mmHg 93%
05:00 +9°C° 0 mm 7 mps 741 mmHg 92%
06:00 +9°C° 0 mm 7 mps 740 mmHg 91%
07:00 +8°C° 0 mm 7 mps 741 mmHg 90%
08:00 +8°C° 0 mm 7 mps 741 mmHg 89%
09:00 +7°C° 0 mm 6 mps 742 mmHg 88%
10:00 +8°C° 0 mm 7 mps 742 mmHg 85%
11:00 +8°C° 0 mm 7 mps 743 mmHg 82%
12:00 +9°C° 0 mm 7 mps 743 mmHg 80%
13:00 +9°C° 0 mm 7 mps 743 mmHg 81%
14:00 +9°C° 0 mm 7 mps 742 mmHg 83%
15:00 +9°C° 0 mm 7 mps 742 mmHg 84%
16:00 +9°C° 0.1 mm 7 mps 741 mmHg 85%
17:00 +9°C° 0.1 mm 7 mps 740 mmHg 87%
18:00 +9°C° 0.1 mm 7 mps 740 mmHg 88%
19:00 +9°C° 1.4 mm 7 mps 738 mmHg 90%
20:00 +9°C° 1.4 mm 8 mps 737 mmHg 91%
21:00 +7°C° 1.4 mm 8 mps 736 mmHg 93%
22:00 +7°C° 0.6 mm 8 mps 736 mmHg 91%
23:00 +7°C° 0.6 mm 9 mps 736 mmHg 88%

29 January, Friday

Time Temperature Precipitation Wind Pressure Humidity
00:00 +6°C° 0.6 mm 9 mps 736 mmHg 85%
01:00 +6°C° 0 mm 9 mps 737 mmHg 84%
02:00 +5°C° 0 mm 9 mps 738 mmHg 84%
03:00 +4°C° 0 mm 8 mps 739 mmHg 83%
04:00 +4°C° 0 mm 8 mps 739 mmHg 83%
05:00 +4°C° 0 mm 7 mps 740 mmHg 84%
06:00 +3°C° 0 mm 6 mps 740 mmHg 85%
07:00 +3°C° 0 mm 6 mps 740 mmHg 85%
08:00 +3°C° 0 mm 6 mps 740 mmHg 86%
09:00 +3°C° 0 mm 6 mps 740 mmHg 87%
10:00 +4°C° 0 mm 6 mps 740 mmHg 84%
11:00 +5°C° 0 mm 6 mps 739 mmHg 81%
12:00 +6°C° 0 mm 7 mps 739 mmHg 79%
13:00 +7°C° 0.1 mm 6 mps 739 mmHg 79%
14:00 +7°C° 0.1 mm 5 mps 739 mmHg 79%
15:00 +8°C° 0.1 mm 4 mps 738 mmHg 80%
16:00 +7°C° 0.1 mm 4 mps 738 mmHg 82%
17:00 +7°C° 0.1 mm 3 mps 738 mmHg 85%
18:00 +6°C° 0.1 mm 2 mps 738 mmHg 88%
19:00 +5°C° 0.2 mm 2 mps 739 mmHg 89%
20:00 +5°C° 0.2 mm 2 mps 739 mmHg 90%
21:00 +4°C° 0.2 mm 3 mps 740 mmHg 91%
22:00 +3°C° 0.7 mm 4 mps 741 mmHg 89%
23:00 +1°C° 0.7 mm 6 mps 742 mmHg 87%

30 January, Saturday

Time Temperature Precipitation Wind Pressure Humidity
00:00 -1°C° 0.7 mm 7 mps 743 mmHg 85%
01:00 -1°C° 0 mm 6 mps 744 mmHg 84%
02:00 -1°C° 0 mm 6 mps 745 mmHg 82%
03:00 0°C° 0 mm 5 mps 746 mmHg 81%
04:00 -1°C° 0 mm 4 mps 747 mmHg 81%
05:00 -1°C° 0 mm 4 mps 748 mmHg 82%
06:00 -1°C° 0 mm 3 mps 749 mmHg 82%
07:00 0°C° 0 mm 3 mps 750 mmHg 83%
08:00 0°C° 0 mm 3 mps 751 mmHg 83%
09:00 +1°C° 0 mm 2 mps 752 mmHg 84%
10:00 +2°C° 0 mm 2 mps 752 mmHg 79%
11:00 +4°C° 0 mm 2 mps 753 mmHg 73%
12:00 +5°C° 0 mm 2 mps 753 mmHg 68%
13:00 +5°C° 0 mm 2 mps 753 mmHg 68%
14:00 +6°C° 0 mm 1 mps 753 mmHg 69%
15:00 +6°C° 0 mm 1 mps 753 mmHg 69%
16:00 +5°C° 0 mm 1 mps 753 mmHg 74%
17:00 +3°C° 0 mm 1 mps 754 mmHg 78%
18:00 +2°C° 0 mm 1 mps 754 mmHg 83%
19:00 +2°C° 0 mm 1 mps 754 mmHg 84%
20:00 +2°C° 0 mm 1 mps 754 mmHg 85%
21:00 +2°C° 0 mm 1 mps 754 mmHg 86%
22:00 +1°C° 0 mm 2 mps 753 mmHg 86%
23:00 0°C° 0 mm 3 mps 752 mmHg 86%
Show more